Location: Kershaw
(34.5481°N, 80.5823°W)
Time: 14:06:56
(UTC+00:00)

Altair - Visible Passes

Search period start: 03 October 2022 00:00
Search period end: 13 October 2022 00:00
Orbit: 1501 x 1682 km, 47.2° (Epoch: 03 October)

Date Brightness Start Highest point End Pass type
(mag) Time Alt. Az. Time Alt. Az. Time Alt. Az.
03 Oct 8.2 08:27:57 36° SSE 08:30:50 43° SE 08:39:57 10° ENE visible
03 Oct 7.7 10:26:02 11° WSW 10:35:19 68° NNW 10:45:21 10° NE visible
04 Oct 8.3 08:04:39 38° SE 08:05:43 39° SE 08:14:34 10° ENE visible
04 Oct 7.6 10:02:43 20° WSW 10:10:04 72° NNW 10:20:06 10° NE visible
05 Oct 8.5 07:41:17 35° ESE 07:41:17 35° ESE 07:49:11 10° ENE visible
05 Oct 7.5 09:39:21 30° WSW 09:44:49 77° NNW 09:54:51 10° NE visible
06 Oct 8.8 07:17:51 29° ESE 07:17:51 29° ESE 07:23:46 10° ENE visible
06 Oct 7.5 09:15:54 44° WSW 09:19:35 82° NW 09:29:36 10° NE visible
07 Oct 9.1 06:54:22 22° E 06:54:22 22° E 06:58:19 10° ENE visible
07 Oct 7.4 08:52:24 63° WSW 08:54:22 87° NW 09:04:21 10° NE visible
07 Oct 8.2 10:51:02 10° W 11:00:13 44° NNW 11:09:43 10° ENE visible
08 Oct 9.4 06:30:49 16° E 06:30:49 16° E 06:32:49 10° ENE visible
08 Oct 7.3 08:28:51 85° SSW 08:29:09 88° SE 08:39:06 10° NE visible
08 Oct 8.1 10:26:53 14° W 10:34:52 45° NNW 10:44:24 10° NE visible
09 Oct 9.7 06:07:13 10° ENE 06:07:13 10° ENE 06:07:15 10° ENE visible
09 Oct 7.6 08:05:14 71° ENE 08:05:14 71° ENE 08:13:50 10° NE visible
09 Oct 8.0 10:03:16 22° W 10:09:31 47° NNW 10:19:05 10° NE visible
10 Oct 8.0 07:41:36 52° ENE 07:41:36 52° ENE 07:48:35 10° ENE visible
10 Oct 8.0 09:39:38 30° WNW 09:44:12 48° NNW 09:53:47 10° NE visible
11 Oct 8.5 07:17:55 38° ENE 07:17:55 38° ENE 07:23:20 10° ENE visible
11 Oct 7.9 09:15:57 40° WNW 09:18:53 50° NNW 09:28:30 10° NE visible
12 Oct 8.9 06:54:13 27° ENE 06:54:13 27° ENE 06:58:04 10° ENE visible
12 Oct 7.7 08:52:14 50° NW 08:53:34 53° NNW 09:03:13 10° NE visible
12 Oct 8.4 10:51:19 10° WNW 11:00:19 39° N 11:09:36 10° ENE visible
